Regional Weather Roundup
Issued by NWS

Home | Current Version | Previous Version | Text Only | Print | Product List | Glossary Off
Versions: 1 2 3 4 5 6 7 8 9 10 11 12 13 14 15 16 17 18 19 20 21 22 23 24 25 26 27 28 29 30 31 32 33 34 35 36 37 38 39 40 41 42 43 44 45 46 47 48 49 50

000
ASUS43 KIND 271509
RWRIN

WEATHER ROUNDUP FOR INDIANA
NATIONAL WEATHER SERVICE INDIANAPOLIS IN
1100 AM EDT TUE JUN 27 2017

NOTE: "FAIR" INDICATES FEW OR NO CLOUDS BELOW 12,000 FEET WITH NO
SIGNIFICANT WEATHER AND/OR OBSTRUCTIONS TO VISIBILITY.

* - STATION DOES NOT REPORT WEATHER SUCH AS PRECIPITATION OR FOG.

+ - STATION NOT QUALITY CONTROLLED BY THE NATIONAL WEATHER SERVICE.
    USE DATA WITH CAUTION...ESPECIALLY DEWPOINT AND RELATIVE
    HUMIDITY OBSERVATIONS.

INZ001>003-010>013-019-020-271600-
NORTHWEST INDIANA

CITY           SKY/WX    TMP DP  RH WIND       PRES   REMARKS
GARY /AIRPORT/ MOSUNNY   70  43  37 W10       30.15S
KNOX *+        SUNNY     64  36  34 W3        30.15F
LA PORTE +     SUNNY     66  47  49 NW7       30.16S
MICHIGAN CITY+ SUNNY     66  45  45 W8        30.15S
MONTICELLO +   SUNNY     65  47  52 NW5       30.16F
VALPARAISO     SUNNY     69  48  47 W8        30.15F

$$

LMZ046-743>745-271600-
SOUTHERN LAKE MICHIGAN

STATION/POSITION TIME  TEMP    WIND        PRES    WAVE
                       AIR SEA DIR/SP/G            HT
                 (UTC) (F)     (DEG/KT/KT) (MB)    (FT)
BURNS HARBOR     1430   64     270/  6/ 10 1021.3S
MICHIGAN CITY    1440   62     240/ 10/ 11   N/A
5NW MICH CITY    1500   62 65  250/  8/ 10   N/A     2

$$

INZ004-005-014>016-021>024-271600-
NORTH CENTRAL INDIANA

CITY           SKY/WX    TMP DP  RH WIND       PRES   REMARKS
ELKHART        MOSUNNY   66  48  52 W9        30.14F
GOSHEN         SUNNY     66  46  48 W10       30.14F
LOGANSPORT +   SUNNY     63  50  63 W3        30.17S
PERU/GRISSOM   SUNNY     64  51  61 NW8       30.16R
ROCHESTER +    SUNNY     66  48  52 NW3       30.16S
SOUTH BEND     MOSUNNY   66  48  52 NW12      30.14F
WARSAW +       SUNNY     64  46  52 W6        30.15S

$$

INZ006>009-017-018-025>027-271600-
NORTHEAST INDIANA

CITY           SKY/WX    TMP DP  RH WIND       PRES   REMARKS
AUBURN +       SUNNY     63  45  51 SW5       30.15S
FORT WAYNE     MOSUNNY   64  47  53 NW7       30.16S
HUNTINGTON +   SUNNY     62  47  59 N3        30.15F
KENDALLVILLE + MOSUNNY   65  47  53 NW7       30.14S

$$

INZ028-029-035-036-043>045-051>053-271600-
WEST CENTRAL INDIANA

CITY           SKY/WX    TMP DP  RH WIND       PRES   REMARKS
CRAWFORDSVL +  SUNNY     63  49  61 NW9       30.18S
GREENCASTLE +  SUNNY     64  45  48 N3        30.18S
LAFAYETTE      SUNNY     66  49  54 NW6       30.17S
TERRE HAUTE    SUNNY     67  45  45 NE3       30.18S

$$

INZ030>032-037>040-046>048-054>057-064-065-271600-
CENTRAL INDIANA

CITY           SKY/WX    TMP DP  RH WIND       PRES   REMARKS
CP ATTERBURY + SUNNY     66  46  48 N5        30.18S
COLUMBUS       SUNNY     64  45  48 NW3       30.18S
FRANKFORT +    SUNNY     67  52  58 N5        30.19S
GREENWOOD *+   SUNNY     65  47  51 NW7       30.18S
INDIANAPOLIS   MOSUNNY   67  48  50 NW7       30.17S
-EAGLE CREEK   SUNNY     66  48  52 N7        30.16F
KOKOMO +       SUNNY     64  49  57 NW9       30.17F
MARION +       SUNNY     63  50  63 N5        30.17S
MT COMFORT *+  SUNNY     64  50  59 N9        30.18S
SHELBYVILLE    SUNNY     67  46  47 NW9       30.17S
ZIONSVILLE +   SUNNY     63  49  60 N8        30.18S

$$

INZ033-034-041-042-049-050-058-059-271600-
EAST CENTRAL INDIANA

CITY           SKY/WX    TMP DP  RH WIND       PRES   REMARKS
MUNCIE         MOSUNNY   66  52  60 NW9       30.16F
RICHMOND +     MOSUNNY   61  46  59 NW13      30.16F HAZE

$$

INZ060-061-067>069-081>083-085>088-271600-
SOUTHWEST INDIANA

CITY           SKY/WX    TMP DP  RH WIND       PRES   REMARKS
EVANSVILLE     SUNNY     71  53  52 NE7       30.17F
HUNTINGBURG *+ SUNNY     70  56  61 CALM      30.17F
WASHINGTON +   SUNNY     67  49  51 CALM      30.17F

$$

INZ062-063-066-070>080-084-089>092-271600-
SOUTH CENTRAL AND SOUTHEAST INDIANA

CITY           SKY/WX    TMP DP  RH WIND       PRES   REMARKS
BEDFORD +      SUNNY     66  46  48 CALM      30.16F
BLOOMINGTON    SUNNY     68  46  45 VRB5      30.17F
MADISON *+     SUNNY     68  45  42 NW7       30.19S
NORTH VERNON + SUNNY     64  48  55 NW3       30.18S
SEYMOUR +      SUNNY     68  50  52 N6        30.17F

$$





USA.gov is the U.S. government's official web portal to all federal, state and local government web resources and services.